TimeAKDT,TemperatureF,Dew PointF,Humidity,Sea Level PressureIn,VisibilityMPH,Wind Direction,Wind SpeedMPH,Gust SpeedMPH,PrecipitationIn,Events,Conditions,WindDirDegrees,DateUTC
12:16 AM,44.6,39.2,81,29.52,10.0,SSE,10.4,17.3,N/A,,Overcast,150,2011-10-30 08:16:00
12:36 AM,44.6,37.4,76,29.54,8.0,SSW,12.7,-,N/A,,Overcast,200,2011-10-30 08:36:00
12:56 AM,44.6,37.4,76,29.54,10.0,SSE,5.8,-,N/A,,Overcast,160,2011-10-30 08:56:00
1:16 AM,44.6,37.4,76,29.54,9.0,SSE,4.6,16.1,N/A,,Overcast,150,2011-10-30 09:16:00
1:36 AM,44.6,37.4,76,29.54,10.0,SSE,8.1,-,N/A,,Overcast,160,2011-10-30 09:36:00
1:56 AM,42.8,37.4,81,29.55,10.0,SE,6.9,-,N/A,,Overcast,130,2011-10-30 09:56:00
2:16 AM,42.8,37.4,81,29.54,10.0,SE,13.8,17.3,N/A,,Overcast,130,2011-10-30 10:16:00
2:36 AM,42.8,37.4,81,29.55,10.0,SSE,9.2,-,N/A,,Overcast,160,2011-10-30 10:36:00
2:56 AM,42.8,37.4,81,29.55,10.0,South,9.2,-,N/A,,Overcast,170,2011-10-30 10:56:00
3:16 AM,42.8,37.4,81,29.54,10.0,SSE,15.0,19.6,N/A,,Overcast,150,2011-10-30 11:16:00
3:36 AM,44.6,35.6,71,29.53,10.0,SE,19.6,24.2,N/A,,Overcast,130,2011-10-30 11:36:00
3:56 AM,42.8,35.6,76,29.53,10.0,SE,17.3,24.2,N/A,,Overcast,140,2011-10-30 11:56:00
4:16 AM,44.6,35.6,71,29.53,10.0,SE,19.6,26.5,N/A,,Mostly Cloudy,140,2011-10-30 12:16:00
4:36 AM,42.8,35.6,76,29.56,10.0,South,4.6,-,N/A,,Overcast,170,2011-10-30 12:36:00
4:56 AM,42.8,35.6,76,29.56,9.0,West,6.9,-,N/A,,Overcast,260,2011-10-30 12:56:00
5:16 AM,41.0,37.4,87,29.57,7.0,WNW,6.9,-,N/A,,Overcast,300,2011-10-30 13:16:00
5:36 AM,41.0,37.4,87,29.57,3.0,SE,5.8,-,N/A,,Overcast,130,2011-10-30 13:36:00
5:56 AM,41.0,37.4,87,29.56,3.0,ESE,5.8,-,N/A,,Overcast,120,2011-10-30 13:56:00
6:16 AM,39.2,37.4,93,29.57,3.0,Calm,Calm,-,N/A,,Overcast,0,2011-10-30 14:16:00
6:36 AM,41.0,37.4,87,29.57,3.0,Calm,Calm,-,N/A,,Overcast,0,2011-10-30 14:36:00
6:56 AM,39.2,37.4,93,29.57,7.0,East,3.5,-,N/A,,Overcast,90,2011-10-30 14:56:00
7:16 AM,41.0,37.4,87,29.56,7.0,East,11.5,-,N/A,,Overcast,90,2011-10-30 15:16:00
7:36 AM,42.8,37.4,81,29.56,7.0,ESE,9.2,-,N/A,,Overcast,120,2011-10-30 15:36:00
7:56 AM,42.8,37.4,81,29.56,10.0,ESE,11.5,-,N/A,,Overcast,120,2011-10-30 15:56:00
8:16 AM,42.8,37.4,81,29.57,10.0,SSE,5.8,-,N/A,,Overcast,150,2011-10-30 16:16:00
8:36 AM,42.8,37.4,81,29.58,10.0,SSE,5.8,-,N/A,,Overcast,150,2011-10-30 16:36:00
8:56 AM,42.8,37.4,81,29.59,10.0,SSE,5.8,-,N/A,,Overcast,150,2011-10-30 16:56:00
9:16 AM,42.8,37.4,81,29.60,10.0,SE,5.8,-,N/A,,Overcast,130,2011-10-30 17:16:00
9:36 AM,42.8,37.4,81,29.60,10.0,East,6.9,-,N/A,,Overcast,80,2011-10-30 17:36:00
9:56 AM,42.8,37.4,81,29.60,10.0,ESE,5.8,-,N/A,,Overcast,120,2011-10-30 17:56:00
10:16 AM,42.8,37.4,81,29.61,10.0,East,6.9,-,N/A,,Overcast,90,2011-10-30 18:16:00
10:36 AM,42.8,37.4,81,29.61,10.0,ESE,6.9,-,N/A,,Overcast,110,2011-10-30 18:36:00
10:56 AM,44.6,37.4,76,29.62,10.0,ESE,5.8,-,N/A,,Overcast,110,2011-10-30 18:56:00
11:16 AM,44.6,37.4,76,29.62,10.0,South,4.6,-,N/A,,Overcast,170,2011-10-30 19:16:00
11:36 AM,44.6,37.4,76,29.62,10.0,SE,11.5,-,N/A,,Overcast,140,2011-10-30 19:36:00
11:56 AM,42.8,37.4,81,29.63,10.0,SSE,9.2,16.1,N/A,,Overcast,150,2011-10-30 19:56:00
12:16 PM,42.8,39.2,87,29.63,10.0,SE,9.2,-,N/A,,Overcast,130,2011-10-30 20:16:00
12:36 PM,42.8,39.2,87,29.64,10.0,South,5.8,-,N/A,,Overcast,170,2011-10-30 20:36:00
12:56 PM,42.8,39.2,87,29.65,7.0,South,4.6,-,N/A,,Overcast,170,2011-10-30 20:56:00
1:16 PM,42.8,39.2,87,29.65,7.0,SE,4.6,-,N/A,,Overcast,130,2011-10-30 21:16:00
1:36 PM,44.6,37.4,76,29.66,7.0,ESE,4.6,-,N/A,,Overcast,110,2011-10-30 21:36:00
1:56 PM,44.6,39.2,81,29.65,10.0,East,5.8,-,N/A,,Overcast,100,2011-10-30 21:56:00
2:16 PM,44.6,39.2,81,29.66,10.0,SSE,5.8,-,N/A,,Overcast,160,2011-10-30 22:16:00
2:36 PM,44.6,39.2,81,29.65,10.0,SE,9.2,-,N/A,,Overcast,140,2011-10-30 22:36:00
2:56 PM,44.6,37.4,76,29.66,10.0,SSE,8.1,-,N/A,,Overcast,160,2011-10-30 22:56:00
3:16 PM,44.6,37.4,76,29.68,10.0,SSW,3.5,-,N/A,,Overcast,210,2011-10-30 23:16:00
3:36 PM,44.6,37.4,76,29.69,10.0,South,4.6,-,N/A,,Overcast,180,2011-10-30 23:36:00
3:56 PM,42.8,39.2,87,29.69,10.0,SE,5.8,-,N/A,,Overcast,130,2011-10-30 23:56:00
4:16 PM,44.6,37.4,76,29.69,10.0,South,3.5,-,N/A,,Overcast,170,2011-10-31 00:16:00
4:36 PM,44.6,37.4,76,29.70,10.0,South,5.8,-,N/A,,Overcast,190,2011-10-31 00:36:00
4:56 PM,44.6,37.4,76,29.70,10.0,South,8.1,-,N/A,,Overcast,170,2011-10-31 00:56:00
5:16 PM,44.6,37.4,76,29.71,10.0,Calm,Calm,-,N/A,,Overcast,0,2011-10-31 01:16:00
5:36 PM,44.6,37.4,76,29.72,10.0,ESE,4.6,-,N/A,,Overcast,110,2011-10-31 01:36:00
5:56 PM,46.4,37.4,71,29.72,10.0,South,5.8,-,N/A,,Overcast,180,2011-10-31 01:56:00
6:16 PM,44.6,37.4,76,29.73,10.0,South,6.9,-,N/A,,Overcast,180,2011-10-31 02:16:00
6:36 PM,44.6,37.4,76,29.73,10.0,SSW,11.5,18.4,N/A,,Overcast,200,2011-10-31 02:36:00
6:56 PM,44.6,37.4,76,29.74,4.0,SSW,6.9,18.4,N/A,,Overcast,200,2011-10-31 02:56:00
7:16 PM,44.6,37.4,76,29.75,4.0,South,11.5,18.4,N/A,,Overcast,180,2011-10-31 03:16:00
7:36 PM,44.6,37.4,76,29.76,4.0,South,11.5,17.3,N/A,,Overcast,190,2011-10-31 03:36:00
7:56 PM,44.6,37.4,76,29.78,5.0,WSW,8.1,-,N/A,,Overcast,240,2011-10-31 03:56:00
8:16 PM,44.6,35.6,71,29.78,5.0,WSW,17.3,20.7,N/A,,Overcast,240,2011-10-31 04:16:00
8:36 PM,42.8,35.6,76,29.79,5.0,West,9.2,-,N/A,,Overcast,280,2011-10-31 04:36:00
8:56 PM,44.6,37.4,76,29.81,5.0,SW,5.8,-,N/A,,Overcast,220,2011-10-31 04:56:00
9:16 PM,44.6,37.4,76,29.82,5.0,West,11.5,17.3,N/A,,Overcast,260,2011-10-31 05:16:00
9:36 PM,46.4,37.4,71,29.83,5.0,WSW,10.4,17.3,N/A,,Overcast,250,2011-10-31 05:36:00
9:56 PM,46.4,35.6,66,29.85,5.0,WSW,12.7,17.3,N/A,,Overcast,250,2011-10-31 05:56:00
10:16 PM,46.4,35.6,66,29.86,5.0,WSW,12.7,23.0,N/A,,Overcast,250,2011-10-31 06:16:00
10:36 PM,44.6,35.6,71,29.88,5.0,SW,12.7,21.9,N/A,,Overcast,230,2011-10-31 06:36:00
10:56 PM,44.6,35.6,71,29.90,5.0,West,9.2,-,N/A,,Overcast,260,2011-10-31 06:56:00
11:16 PM,44.6,33.8,66,29.90,10.0,WSW,15.0,21.9,N/A,,Overcast,250,2011-10-31 07:16:00
11:36 PM,44.6,33.8,66,29.91,10.0,WSW,11.5,28.8,N/A,,Overcast,250,2011-10-31 07:36:00
11:56 PM,44.6,33.8,66,29.94,10.0,WSW,10.4,21.9,N/A,,Overcast,240,2011-10-31 07:56:00